Location: Demre
(36.2444°N, 29.9850°E)
Time: 05:05:22
(UTC+00:00)

CZ-4B DEB - Pass Details

Date: 11 March 2026
Orbit: 834 x 853 km, 98.9° (Epoch: 21 April)

Event Time Altitude Azimuth Distance (km) Brightness Sun altitude
Exits shadow 18:25:21 68° 224° (SW) 898 4.3 -29.0°
Maximum altitude 18:25:45 71° 257° (WSW) 881 4.3 -29.0°
Drops below altitude 10° 18:31:10 10° 342° (NNW) 2,450 7.0 -30.1°
Sets 18:33:33 0° 345° (NNW) 3,388 7.8 -30.5°
